EW4052 Weather Reports


time (UTC)temp
F
wind
direction
speed
knots
gust
knots
rain 1hr
in
rain 24hr
in
rain mn
in
humidity
%
barometer
mb
20260903071548 71 226 0.0 3.5 0.00 0.08 0.00 100 1009.2
20260903070043 71 96 0.0 0.0 0.00 0.08 0.00 100 1008.6
20260903064538 71 96 0.0 0.0 0.00 0.08 0.00 100 1008.5
20260903063034 71 96 0.0 0.0 0.00 0.08 0.00 100 1008.6
20260903061536 71 96 0.0 0.0 0.00 0.08 0.00 100 1008.6
20260903060037 71 96 0.0 0.0 0.00 0.08 0.00 100 1008.8
20260903054522 71 96 0.0 0.0 0.00 0.08 0.00 100 1008.6
20260903053028 71 96 0.0 0.0 0.00 0.08 0.00 100 1008.5
20260903051513 71 96 0.0 0.0 0.00 0.08 0.00 100 1008.6
20260903050010 72 96 0.0 0.0 0.00 0.08 0.00 100 1008.7
20260903044511 72 96 0.0 0.0 0.00 0.08 0.08 100 1008.6
20260903043015 73 96 0.0 0.0 0.00 0.08 0.08 100 1008.5
20260903041506 73 96 0.0 0.0 0.00 0.08 0.08 100 1008.6
20260903040008 74 96 0.0 0.0 0.00 0.08 0.08 100 1008.7
20260903034506 74 96 0.0 0.0 0.00 0.08 0.08 100 1008.7
20260903033005 74 96 0.0 0.0 0.00 0.08 0.08 100 1008.9
20260903031504 74 96 0.0 0.0 0.00 0.08 0.08 100 1008.8
20260903030003 75 96 0.0 0.0 0.00 0.08 0.08 100 1008.8
20260903024504 75 96 0.0 0.0 0.00 0.08 0.08 100 1008.8
20260903023002 75 96 0.0 0.0 0.00 0.08 0.08 100 1008.8
20260903021506 75 96 0.0 0.0 0.00 0.08 0.08 100 1008.6
20260903020105 76 96 0.0 0.0 0.00 0.08 0.08 100 1008.5
20260903014602 76 96 0.0 0.0 0.00 0.08 0.08 3 1008.5
20260903013050 76 96 0.0 0.0 0.00 0.08 0.08 4 1008.2
20260903011546 77 96 0.0 0.0 0.00 0.08 0.08 16 1008.1
20260903010040 77 96 0.0 0.0 0.00 0.08 0.08 30 1008.1
20260903004537 78 96 0.0 0.0 0.00 0.08 0.08 45 1008.2
20260903003032 79 96 0.0 0.0 0.00 0.08 0.08 49 1008.2
20260903001528 80 96 0.0 0.0 0.00 0.08 0.08 53 1008.2
20260903000025 81 96 0.0 0.0 0.00 0.08 0.08 59 1008.1
20260902234518 82 96 0.0 0.0 0.00 0.08 0.08 65 1008.0
20260902233014 82 101 0.0 0.0 0.00 0.08 0.08 67 1008.1
20260902231512 83 105 0.0 3.5 0.00 0.08 0.08 69 1008.1
20260902230005 83 300 0.0 0.0 0.00 0.08 0.08 68 1008.2
20260902224607 82 300 0.0 0.0 0.00 0.08 0.08 67 1008.2
20260902223056 83 300 0.0 0.0 0.00 0.08 0.08 69 1008.1
20260902221552 83 301 0.0 4.3 0.00 0.08 0.08 69 1008.1
20260902220048 84 22 0.0 2.6 0.00 0.08 0.08 68 1008.2
20260902214543 84 143 0.0 3.5 0.00 0.08 0.08 68 1008.3
20260902213037 85 254 0.0 3.5 0.00 0.08 0.08 67 1008.4
20260902211532 85 302 0.0 3.5 0.00 0.08 0.08 66 1008.5
20260902210047 85 263 0.0 0.9 0.00 0.08 0.08 66 1008.7
20260902204528 85 233 0.0 3.5 0.00 0.08 0.08 65 1008.8
20260902203019 86 305 0.0 2.6 0.00 0.08 0.08 66 1009.0
20260902201514 86 271 0.0 0.0 0.00 0.08 0.08 64 1009.1
20260902200011 85 311 0.0 2.6 0.00 0.08 0.08 65 1009.3
20260902194506 85 349 0.0 0.0 0.00 0.08 0.08 67 1009.5
20260902193001 84 186 0.0 2.6 0.00 0.08 0.08 68 1009.6
20260902191604 83 284 0.0 0.9 0.00 0.08 0.08 68 1009.6
20260902190059 82 288 0.0 0.0 0.00 0.08 0.08 68 1009.6
20260902184555 82 294 0.0 0.0 0.00 0.09 0.08 67 1009.8
20260902183051 83 294 0.0 1.7 0.00 0.09 0.08 66 1009.9
20260902181555 83 295 0.0 0.0 0.00 0.09 0.08 68 1010.3
20260902180100 82 293 0.0 2.6 0.00 0.09 0.08 69 1010.4
20260902174537 80 285 0.0 3.5 0.00 0.22 0.08 69 1010.0
20260902173034 78 319 0.0 0.0 0.00 0.22 0.08 66 1010.2
20260902171529 75 355 0.0 0.9 0.00 0.22 0.08 40 1010.6
20260902170029 71 355 2.6 5.2 0.00 0.22 0.08 100 1010.6
20260902164529 69 299 0.0 0.0 0.00 0.22 0.08 100 1011.1
20260902163027 68 216 0.0 0.0 0.00 0.22 0.08 100 1010.5
20260902161520 68 215 0.0 0.0 0.00 0.22 0.08 100 1011.8
20260902160014 68 215 0.0 0.0 0.00 0.22 0.08 100 1011.7
20260902154511 67 227 0.0 0.0 0.00 0.22 0.08 100 1011.6
20260902153007 67 227 0.0 0.0 0.00 0.22 0.08 100 1011.5
20260902151505 68 227 0.0 0.0 0.00 0.22 0.08 100 1011.4
20260902150057 67 227 0.0 0.0 0.00 0.22 0.08 100 1010.8
20260902144601 67 227 0.0 0.0 0.00 0.22 0.08 100 1010.3
20260902143052 67 227 0.0 0.0 0.00 0.22 0.08 100 1010.4
20260902141543 0 227 0.0 0.0 0.00 0.22 0.08 1010.5
20260902140039 0 227 0.0 0.0 0.00 0.22 0.08 1010.5
20260902134536 0 221 0.0 0.0 0.00 0.22 0.08 1010.6
20260902133031 0 220 0.0 0.0 0.00 0.22 0.08 1010.9
20260902131527 0 208 0.0 0.0 0.00 0.22 0.08 1010.2
20260902130027 0 208 0.0 0.0 0.00 0.22 0.08 1009.7
20260902124517 0 208 0.0 0.0 0.00 0.22 0.08 1010.2
20260902123013 0 207 0.0 0.0 0.00 0.22 0.08 1010.0
20260902121508 0 207 0.0 0.0 0.00 0.22 0.08 1009.7
20260902120004 0 208 0.0 0.0 0.00 0.22 0.08 1010.2
20260902114600 0 208 0.9 9.6 0.00 0.22 0.08 1010.7
20260902113057 0 29 0.0 13.0 0.00 0.22 0.08 1009.6
20260902111551 0 259 0.0 0.0 0.00 0.22 0.08 1010.4
20260902110045 0 263 0.0 0.0 0.01 0.22 0.08 1010.1
20260902104543 63 54 0.0 0.0 0.01 0.22 0.08 100 1010.2
20260902103037 64 54 0.0 0.0 0.02 0.22 0.08 100 1009.7
20260902101537 64 58 0.0 0.0 0.04 0.22 0.08 100 1010.8
20260902100033 64 49 0.0 0.0 0.03 0.21 0.07 100 1011.5
20260902094532 64 49 0.0 0.0 0.04 0.21 0.07 100 1011.3
20260902093034 65 49 0.0 0.0 0.06 0.20 0.06 100 1012.0
20260902091523 66 277 0.0 0.0 0.04 0.18 0.04 100 1012.6
20260902090014 67 311 0.0 10.4 0.04 0.18 0.04 100 1012.6
20260902084511 69 265 13.9 31.3 0.03 0.17 0.03 28 1014.6
20260902083007 70 32 0.0 8.7 0.00 0.14 0.00 37 1010.7
20260902081502 70 117 0.0 0.0 0.00 0.14 0.00 40 1010.3
20260902080112 70 49 0.9 6.1 0.00 0.14 0.00 46 1010.5
20260902074552 71 29 3.5 8.7 0.00 0.14 0.00 50 1010.8
20260902073049 71 34 1.7 8.7 0.00 0.14 0.00 52 1010.8